TimeEST,TemperatureF,Dew PointF,Humidity,Sea Level PressureIn,VisibilityMPH,Wind Direction,Wind SpeedMPH,Gust SpeedMPH,PrecipitationIn,Events,Conditions,WindDirDegrees,DateUTC
12:15 AM,60.8,59.0,94,29.95,10.0,SSW,11.5,18.4,N/A,,Clear,200,2013-01-02 05:15:00
12:35 AM,60.8,59.0,94,29.94,10.0,SSW,11.5,16.1,N/A,,Scattered Clouds,200,2013-01-02 05:35:00
12:55 AM,62.6,59.0,88,29.94,10.0,SSW,11.5,17.3,N/A,,Overcast,210,2013-01-02 05:55:00
1:15 AM,62.6,59.0,88,29.93,10.0,SSW,12.7,18.4,N/A,,Overcast,210,2013-01-02 06:15:00
1:35 AM,62.6,59.0,88,29.93,10.0,SSW,10.4,18.4,N/A,,Overcast,210,2013-01-02 06:35:00
1:55 AM,62.6,57.2,82,29.94,10.0,SW,9.2,-,N/A,,Overcast,230,2013-01-02 06:55:00
2:15 AM,62.6,57.2,82,29.94,10.0,SW,10.4,-,N/A,,Overcast,230,2013-01-02 07:15:00
2:35 AM,62.6,57.2,82,29.93,10.0,SW,8.1,16.1,N/A,,Overcast,220,2013-01-02 07:35:00
2:55 AM,62.6,55.4,77,29.94,10.0,SW,10.4,-,N/A,,Overcast,230,2013-01-02 07:55:00
3:15 AM,60.8,57.2,88,29.94,7.0,WSW,10.4,19.6,N/A,Rain,Light Rain,240,2013-01-02 08:15:00
3:35 AM,60.8,59.0,94,29.93,10.0,SW,6.9,-,N/A,,Overcast,220,2013-01-02 08:35:00
4:15 AM,60.8,57.2,88,29.92,10.0,SW,6.9,-,N/A,,Overcast,220,2013-01-02 09:15:00
4:35 AM,60.8,57.2,88,29.92,10.0,SW,6.9,-,N/A,,Overcast,230,2013-01-02 09:35:00
4:55 AM,60.8,57.2,88,29.92,10.0,SW,8.1,-,N/A,,Overcast,230,2013-01-02 09:55:00
5:15 AM,60.8,57.2,88,29.91,10.0,SW,8.1,-,N/A,,Overcast,230,2013-01-02 10:15:00
5:35 AM,62.6,57.2,82,29.91,10.0,SW,9.2,-,N/A,,Overcast,220,2013-01-02 10:35:00
5:55 AM,60.8,57.2,88,29.91,10.0,SW,8.1,-,N/A,,Mostly Cloudy,220,2013-01-02 10:55:00
6:15 AM,60.8,57.2,88,29.90,10.0,SW,9.2,-,N/A,,Scattered Clouds,220,2013-01-02 11:15:00
6:35 AM,60.8,57.2,88,29.91,10.0,SW,5.8,-,N/A,,Clear,220,2013-01-02 11:35:00
6:55 AM,59.0,57.2,94,29.91,10.0,SSW,5.8,-,N/A,,Clear,200,2013-01-02 11:55:00
7:15 AM,59.0,57.2,94,29.94,10.0,WSW,4.6,-,N/A,,Scattered Clouds,240,2013-01-02 12:15:00
7:35 AM,59.0,59.0,100,29.94,10.0,SSW,4.6,-,N/A,,Overcast,210,2013-01-02 12:35:00
7:55 AM,60.8,59.0,94,29.94,10.0,SW,6.9,-,N/A,,Overcast,230,2013-01-02 12:55:00
8:15 AM,60.8,60.8,100,29.95,10.0,WSW,6.9,-,N/A,,Overcast,250,2013-01-02 13:15:00
8:35 AM,62.6,60.8,94,29.96,10.0,WNW,6.9,-,N/A,,Overcast,290,2013-01-02 13:35:00
8:55 AM,60.8,60.8,100,29.98,3.0,WNW,9.2,-,N/A,Rain,Rain,300,2013-01-02 13:55:00
9:15 AM,57.2,57.2,100,29.99,3.0,NNW,11.5,-,N/A,,Overcast,340,2013-01-02 14:15:00
9:35 AM,55.4,55.4,100,30.00,2.5,NW,6.9,-,N/A,,Overcast,320,2013-01-02 14:35:00
10:15 AM,55.4,55.4,100,30.02,3.0,North,6.9,-,N/A,,Overcast,350,2013-01-02 15:15:00
10:35 AM,53.6,53.6,100,30.03,5.0,North,6.9,-,N/A,,Overcast,350,2013-01-02 15:35:00
10:55 AM,53.6,53.6,100,30.03,10.0,NNE,8.1,-,N/A,,Overcast,20,2013-01-02 15:55:00
11:15 AM,55.4,55.4,100,30.02,10.0,NNE,9.2,-,N/A,,Overcast,30,2013-01-02 16:15:00
11:35 AM,55.4,55.4,100,30.03,10.0,North,9.2,-,N/A,,Overcast,360,2013-01-02 16:35:00
11:55 AM,53.6,53.6,100,30.03,10.0,NNE,8.1,-,N/A,Rain,Rain,20,2013-01-02 16:55:00
12:15 PM,53.6,53.6,100,30.03,10.0,NNE,6.9,-,N/A,,Overcast,30,2013-01-02 17:15:00
12:35 PM,53.6,53.6,100,30.02,10.0,NE,6.9,-,N/A,,Overcast,40,2013-01-02 17:35:00
12:55 PM,53.6,53.6,100,30.02,10.0,NE,6.9,-,N/A,Rain,Rain,50,2013-01-02 17:55:00
1:15 PM,53.6,53.6,100,30.02,10.0,NNE,8.1,-,N/A,,Overcast,30,2013-01-02 18:15:00
1:35 PM,53.6,53.6,100,30.02,10.0,NNE,6.9,-,N/A,,Overcast,20,2013-01-02 18:35:00
1:55 PM,53.6,53.6,100,30.02,10.0,NNE,9.2,-,N/A,,Overcast,30,2013-01-02 18:55:00
2:15 PM,53.6,53.6,100,30.03,10.0,North,8.1,-,N/A,,Overcast,360,2013-01-02 19:15:00
2:35 PM,53.6,53.6,100,30.03,10.0,NE,8.1,-,N/A,,Overcast,50,2013-01-02 19:35:00
2:55 PM,53.6,53.6,100,30.03,10.0,NE,6.9,-,N/A,,Overcast,40,2013-01-02 19:55:00
3:15 PM,53.6,53.6,100,30.04,10.0,NE,5.8,-,N/A,,Overcast,50,2013-01-02 20:15:00
3:35 PM,53.6,51.8,94,30.04,10.0,ENE,6.9,-,N/A,,Overcast,70,2013-01-02 20:35:00
3:55 PM,53.6,50.0,88,30.03,10.0,ENE,9.2,-,N/A,,Mostly Cloudy,70,2013-01-02 20:55:00
4:15 PM,53.6,50.0,88,30.05,10.0,ENE,6.9,-,N/A,,Mostly Cloudy,70,2013-01-02 21:15:00
4:35 PM,53.6,50.0,88,30.07,10.0,East,6.9,-,N/A,,Overcast,80,2013-01-02 21:35:00
4:55 PM,53.6,50.0,88,30.07,10.0,East,5.8,-,N/A,,Overcast,80,2013-01-02 21:55:00
5:15 PM,53.6,50.0,88,30.08,10.0,ENE,5.8,-,N/A,,Overcast,60,2013-01-02 22:15:00
5:35 PM,51.8,50.0,94,30.07,10.0,ENE,4.6,-,N/A,,Overcast,70,2013-01-02 22:35:00
5:55 PM,51.8,50.0,94,30.09,10.0,NE,4.6,-,N/A,,Overcast,50,2013-01-02 22:55:00
6:15 PM,51.8,50.0,94,30.10,10.0,NE,5.8,-,N/A,,Overcast,50,2013-01-02 23:15:00
6:35 PM,51.8,50.0,94,30.10,10.0,ENE,4.6,-,N/A,,Overcast,60,2013-01-02 23:35:00
6:55 PM,51.8,50.0,94,30.11,10.0,ENE,5.8,-,N/A,,Overcast,60,2013-01-02 23:55:00
7:15 PM,51.8,50.0,94,30.11,10.0,ENE,4.6,-,N/A,,Overcast,60,2013-01-03 00:15:00
7:35 PM,51.8,50.0,94,30.13,10.0,NE,5.8,-,N/A,,Overcast,40,2013-01-03 00:35:00
8:15 PM,51.8,50.0,94,30.12,10.0,ENE,8.1,-,N/A,,Overcast,60,2013-01-03 01:15:00
8:35 PM,51.8,50.0,94,30.11,10.0,ENE,6.9,-,N/A,,Overcast,60,2013-01-03 01:35:00
8:55 PM,50.0,50.0,100,30.12,10.0,NE,6.9,-,N/A,,Overcast,50,2013-01-03 01:55:00
9:15 PM,50.0,50.0,100,30.14,10.0,NE,8.1,-,N/A,,Overcast,40,2013-01-03 02:15:00
9:35 PM,50.0,50.0,100,30.14,10.0,NE,6.9,-,N/A,,Overcast,40,2013-01-03 02:35:00
9:55 PM,50.0,50.0,100,30.14,7.0,ENE,4.6,-,N/A,,Overcast,60,2013-01-03 02:55:00
10:15 PM,50.0,50.0,100,30.15,10.0,NE,5.8,-,N/A,,Overcast,50,2013-01-03 03:15:00
10:35 PM,50.0,50.0,100,30.15,10.0,ENE,6.9,-,N/A,,Overcast,70,2013-01-03 03:35:00
10:55 PM,50.0,50.0,100,30.17,10.0,NE,6.9,-,N/A,,Overcast,50,2013-01-03 03:55:00
11:15 PM,50.0,50.0,100,30.16,10.0,NE,6.9,-,N/A,,Overcast,50,2013-01-03 04:15:00
11:35 PM,50.0,50.0,100,30.17,10.0,ENE,8.1,-,N/A,,Overcast,60,2013-01-03 04:35:00
11:55 PM,50.0,50.0,100,30.16,10.0,ENE,8.1,-,N/A,,Overcast,70,2013-01-03 04:55:00